DW2130 Tybee Island GA US current weather conditions

sailwx.info

Wind from 005 at 7 knots

Air temperature 8.3° C
Dewpoint -2.0° C

Last reported at 2019-Nov-16 23:45 UTC.
Time now 2019-Nov-17 00:25 UTC

Location: N 32°01' W 080°51'.
View on Google Maps.

See reports from other nearby stations

  
Tides and Currents Weather Stations Pressure Air Temp Water Temp Dewpoint Dewpoint Depression Visibility Wind Speed Wind Dir Waves Ship Positions
date/time (UTC)wind fromknots sea level pressurealtimeterstation pressurevisibilityair tempwater tempwave heightnotes
2019-Nov-16 23:45 005 7 8.3
2019-Nov-16 23:30 333 9 8.3
2019-Nov-16 23:15 323 10 8.3
2019-Nov-16 23:00 032 12 7.8
2019-Nov-16 22:30 351 8 7.8
2019-Nov-16 22:15 322 9 7.8
2019-Nov-16 22:01 018 12 7.8
2019-Nov-16 21:46 311 7 8.3
2019-Nov-16 21:31 310 9 8.3
2019-Nov-16 21:17 019 8 8.9
2019-Nov-16 21:01 350 8 8.9
2019-Nov-16 20:46 009 11 8.9
2019-Nov-16 20:31 005 10 8.9
2019-Nov-16 20:16 323 10 8.9
2019-Nov-16 20:01 344 11 8.9
2019-Nov-16 19:47 323 10 8.9
2019-Nov-16 19:31 325 10 9.4
2019-Nov-16 19:16 011 12 8.9
2019-Nov-16 19:01 331 11 9.4
2019-Nov-16 18:46 320 10 9.4
2019-Nov-16 18:31 016 9 9.4
2019-Nov-16 18:17 355 10 9.4
2019-Nov-16 18:00 005 11 9.4
2019-Nov-16 17:46 024 12 9.4
2019-Nov-16 17:30 360 13 9.4
2019-Nov-16 17:15 346 11 9.4
2019-Nov-16 17:01 044 12 9.4
2019-Nov-16 16:45 321 11 9.4
2019-Nov-16 16:31 048 9 9.4
2019-Nov-16 16:15 313 8 10.0
2019-Nov-16 16:00 313 7 9.4
2019-Nov-16 15:45 326 8 9.4
2019-Nov-16 15:30 346 7 10.0
2019-Nov-16 15:15 317 7 10.0
2019-Nov-16 15:01 323 7 10.0
2019-Nov-16 14:45 355 8 10.0
2019-Nov-16 14:31 005 13 10.0
2019-Nov-16 14:15 302 13 10.6
2019-Nov-16 14:01 345 11 10.6
2019-Nov-16 13:45 032 14 10.6
2019-Nov-16 13:30 010 13 10.6
2019-Nov-16 13:15 317 7 10.6
2019-Nov-16 13:00 327 6 10.6
2019-Nov-16 12:45 262 6 10.0
2019-Nov-16 12:30 302 5 10.0
2019-Nov-16 12:15 321 5 10.0
2019-Nov-16 12:00 283 3 10.0
2019-Nov-16 11:47 299 5 10.0
2019-Nov-16 11:31 341 4 10.6
2019-Nov-16 11:16 301 4 10.6
2019-Nov-16 11:01 324 2 10.6
2019-Nov-16 10:47 318 2 10.6
2019-Nov-16 10:33 326 4 10.6
2019-Nov-16 10:16 323 4 10.6
2019-Nov-16 10:01 312 5 10.6
2019-Nov-16 09:46 310 3 10.6
2019-Nov-16 09:31 005 4 10.6
2019-Nov-16 09:16 315 6 10.6
2019-Nov-16 09:01 340 6 10.6
2019-Nov-16 08:31 318 5 10.6
2019-Nov-16 08:16 329 4 10.6
2019-Nov-16 08:01 327 6 10.6
2019-Nov-16 07:46 346 4 11.1
2019-Nov-16 07:31 005 4 11.1
2019-Nov-16 07:16 331 5 11.1
2019-Nov-16 07:01 336 5 11.1
2019-Nov-16 06:45 346 6 11.7
2019-Nov-16 06:30 342 5 11.7
2019-Nov-16 06:15 024 5 11.7
2019-Nov-16 06:00 355 5 11.7
2019-Nov-16 05:46 355 5 11.7
2019-Nov-16 05:30 324 5 11.7
2019-Nov-16 05:15 360 5 11.7
2019-Nov-16 05:00 325 4 11.7
2019-Nov-16 04:45 360 4 11.7
2019-Nov-16 04:30 312 5 12.2
2019-Nov-16 04:15 326 4 12.2
2019-Nov-16 04:00 355 3 12.2
2019-Nov-16 03:45 327 4 12.2
2019-Nov-16 03:30 360 5 12.2
2019-Nov-16 03:15 045 6 12.2
2019-Nov-16 03:00 011 6 12.2
2019-Nov-16 02:45 018 6 12.2
2019-Nov-16 02:30 360 7 12.2
2019-Nov-16 02:15 005 6 12.2
2019-Nov-16 02:00 005 6 12.2
2019-Nov-16 01:45 051 5 12.2
2019-Nov-16 01:30 009 6 12.2
2019-Nov-16 01:15 355 6 12.2
2019-Nov-16 01:00 030 6 12.2
2019-Nov-16 00:45 021 6 12.2
2019-Nov-16 00:30 051 6 12.2
2019-Nov-16 00:15 020 6 12.8
2019-Nov-16 00:00 005 6 12.8
2019-Nov-15 23:45 343 6 12.8
2019-Nov-15 23:16 015 6 12.8
2019-Nov-15 23:03 355 6 12.8
2019-Nov-15 22:46 013 5 12.8
2019-Nov-15 22:31 011 5 12.8
2019-Nov-15 22:17 355 5 13.3
2019-Nov-15 22:02 360 6 13.3
2019-Nov-15 21:46 009 6 13.3
2019-Nov-15 21:32 355 6 13.3
2019-Nov-15 21:16 355 6 13.3
2019-Nov-15 21:01 011 6 13.9
2019-Nov-15 20:47 355 7 13.9
2019-Nov-15 20:32 018 7 13.9
2019-Nov-15 20:17 005 6 13.9
2019-Nov-15 20:01 017 6 13.9
2019-Nov-15 19:47 013 6 13.9
2019-Nov-15 19:32 026 6 13.9
2019-Nov-15 19:16 026 6 13.9
2019-Nov-15 19:01 015 7 13.9
2019-Nov-15 18:46 005 6 13.9
2019-Nov-15 18:31 355 7 13.9
2019-Nov-15 18:15 009 9 13.9
2019-Nov-15 18:01 025 9 13.3
2019-Nov-15 17:47 029 8 13.9
2019-Nov-15 17:31 032 8 13.3
2019-Nov-15 17:16 035 8 13.3
2019-Nov-15 17:01 025 8 13.3
2019-Nov-15 16:46 350 8 13.3
2019-Nov-15 16:31 067 10 13.3
2019-Nov-15 16:15 015 11 12.8
2019-Nov-15 16:00 019 11 12.8
2019-Nov-15 15:46 009 11 12.8
2019-Nov-15 15:30 024 10 12.2
2019-Nov-15 15:15 070 10 12.2
2019-Nov-15 15:00 022 10 11.7
2019-Nov-15 14:45 040 9 11.7
2019-Nov-15 14:30 038 9 11.1
2019-Nov-15 14:15 058 10 11.1
2019-Nov-15 14:00 042 9 10.6
2019-Nov-15 13:45 067 11 10.6
2019-Nov-15 13:30 080 9 10.6
2019-Nov-15 13:15 350 8 10.0
2019-Nov-15 13:02 017 7 10.0
2019-Nov-15 12:47 011 9 10.0
2019-Nov-15 12:32 059 8 10.0
2019-Nov-15 12:17 046 7 10.6
2019-Nov-15 12:02 011 8 10.6
2019-Nov-15 11:46 349 8 10.6
2019-Nov-15 11:32 012 8 10.6
2019-Nov-15 11:17 010 8 10.6
2019-Nov-15 11:03 360 7 10.6
2019-Nov-15 10:46 014 6 10.6
2019-Nov-15 10:31 342 6 11.1
2019-Nov-15 10:16 024 6 11.1
2019-Nov-15 10:01 021 6 11.1
2019-Nov-15 09:46 049 6 10.6
2019-Nov-15 09:32 036 6 10.6
2019-Nov-15 09:16 013 7 10.6
2019-Nov-15 09:02 059 6 10.6
2019-Nov-15 08:46 021 6 10.6
2019-Nov-15 08:31 021 5 10.6
2019-Nov-15 08:15 005 6 10.6
2019-Nov-15 08:00 054 6 10.6
2019-Nov-15 07:45 360 6 10.6
2019-Nov-15 07:31 022 6 10.6
2019-Nov-15 07:15 339 5 10.6
2019-Nov-15 07:01 360 6 10.0
2019-Nov-15 06:45 047 6 10.6
2019-Nov-15 06:30 005 6 10.6
2019-Nov-15 06:15 355 6 10.6
2019-Nov-15 06:00 343 7 10.0
2019-Nov-15 05:45 351 7 10.0
2019-Nov-15 05:30 351 6 10.0
2019-Nov-15 05:16 316 5 10.0
2019-Nov-15 05:01 010 6 10.0
2019-Nov-15 04:47 332 6 10.0
2019-Nov-15 04:31 045 5 10.0
2019-Nov-15 04:16 010 4 10.0
2019-Nov-15 04:02 012 6 10.6
2019-Nov-15 03:47 026 5 10.0
2019-Nov-15 03:31 044 5 10.0
2019-Nov-15 03:17 022 4 10.0
2019-Nov-15 03:01 017 6 10.0
2019-Nov-15 02:47 037 6 10.0
2019-Nov-15 02:31 021 7 10.0
2019-Nov-15 02:16 360 6 9.4
2019-Nov-15 02:01 057 5 9.4
2019-Nov-15 01:47 355 6 9.4
2019-Nov-15 01:31 346 5 9.4
2019-Nov-15 01:16 013 6 9.4
2019-Nov-15 01:02 325 6 9.4
2019-Nov-15 00:46 355 6 9.4
2019-Nov-15 00:16 355 6 9.4
2019-Nov-15 00:01 042 6 9.4